Imperial, NE

4:59 AM MDT on May 25, 2017 (GMT -0600)
Imperial Municipal

Weather History for KIML - February, 2012

Change the Weather History Date:

Tuesday, February 21, 2012

  Actual Average Record
Temperature  
Mean Temperature 39 °F 33 °F  
Max Temperature 51 °F 46 °F 78 °F (2017)
Min Temperature 27 °F 20 °F -15 °F (1924)
Degree Days  
Heating Degree Days 26 32  
Month to date heating degree days 764 720  
Cooling Degree Days 0 0  
Month to date cooling degree days 0 0  
Year to date cooling degree days 0 0  
Moisture  
Dew Point 22 °F    
Average Humidity 49    
Maximum Humidity 69    
Minimum Humidity 28    
Precipitation  
Precipitation 0.00 in 0.01 in 0.40 in (1897)
Sea Level Pressure  
Sea Level Pressure 29.85 in    
Wind  
Wind Speed 12 mph (West)    
Max Wind Speed 24 mph    
Max Gust Speed 30 mph    
Visibility 10 miles    
Events      
T = Trace of Precipitation, MM = Missing Value Source: NWS Daily Summary

Daily Weather History Graph

Daily Weather History Graph

Search for Another Location

Airport or City:

Trip Planner

Search our weather history database for the weather conditions in past years. The results will help you decide how hot, cold, wet, or windy it might be!

Date:

Astronomy

Feb. 21, 2012 Rise Set
Actual Time 6:32 AM MST 5:28 PM MST
Civil Twilight 6:04 AM MST 5:55 PM MST
Nautical Twilight 5:33 AM MST 6:27 PM MST
Astronomical Twilight 5:01 AM MST 6:59 PM MST
Moon 6:02 AM MST (2/21) 5:37 PM MST (2/21)
Length of Visible Light 11h 51m
Length of Day
10h 55m
Waning Crescent, 0% of the Moon is Illuminated
Feb 21
Waning Crescent
Feb 21
New
Feb 29
First Quarter
Mar 8
Full
Mar 14
Last Quarter

Hourly Weather History & Observations

Time (MST) Temp. Windchill Dew Point Humidity Pressure Visibility Wind Dir Wind Speed Gust Speed Precip Events Conditions
12:53 AM 30.0 °F 21.1 °F 17.1 °F 59% 29.95 in 10.0 mi NW 10.4 mph - N/A   Clear
1:53 AM 28.0 °F 18.6 °F 18.0 °F 66% 29.96 in 10.0 mi West 10.4 mph - N/A   Clear
2:53 AM 28.0 °F 18.6 °F 19.0 °F 69% 29.95 in 10.0 mi WSW 10.4 mph - N/A   Clear
3:53 AM 28.0 °F 18.6 °F 19.0 °F 69% 29.94 in 10.0 mi West 10.4 mph - N/A   Clear
4:53 AM 28.9 °F 19.2 °F 19.9 °F 69% 29.94 in 10.0 mi West 11.5 mph - N/A   Clear
5:53 AM 30.0 °F 20.5 °F 18.0 °F 61% 29.95 in 10.0 mi West 11.5 mph - N/A   Clear
6:53 AM 32.0 °F 23.0 °F 18.0 °F 56% 29.95 in 10.0 mi West 11.5 mph - N/A   Clear
7:53 AM 30.9 °F 22.8 °F 21.0 °F 67% 29.97 in 10.0 mi WSW 9.2 mph - N/A   Clear
8:53 AM 35.1 °F 27.4 °F 21.9 °F 59% 29.96 in 10.0 mi West 10.4 mph - N/A   Clear
9:53 AM 37.9 °F 31.5 °F 23.0 °F 55% 29.94 in 10.0 mi West 9.2 mph - N/A   Clear
10:53 AM 42.1 °F 36.6 °F 23.0 °F 47% 29.91 in 10.0 mi WSW 9.2 mph - N/A   Clear
11:53 AM 45.0 °F 38.5 °F 21.9 °F 40% 29.88 in 10.0 mi West 13.8 mph 20.7 mph N/A   Clear
12:53 PM 48.9 °F - 21.9 °F 35% 29.82 in 10.0 mi West 16.1 mph - N/A   Clear
1:53 PM 50.0 °F - 21.0 °F 32% 29.80 in 10.0 mi WSW 18.4 mph 27.6 mph N/A   Mostly Cloudy
2:53 PM 51.8 °F - 19.4 °F 28% 29.74 in 10.0 mi West 13.8 mph 25.3 mph N/A   Mostly Cloudy
3:53 PM 50.0 °F - 21.0 °F 32% 29.77 in 10.0 mi West 19.6 mph 24.2 mph N/A   Scattered Clouds
4:53 PM 46.4 °F 41.1 °F 23.0 °F 40% 29.74 in 10.0 mi West 11.5 mph - N/A   Mostly Cloudy
5:53 PM 42.1 °F 37.1 °F 23.0 °F 47% 29.78 in 10.0 mi West 8.1 mph - N/A   Clear
6:53 PM 37.0 °F 31.0 °F 24.1 °F 59% 29.78 in 10.0 mi West 8.1 mph - N/A   Clear
7:53 PM 37.0 °F 30.4 °F 25.0 °F 62% 29.78 in 10.0 mi West 9.2 mph - N/A   Partly Cloudy
8:53 PM 39.0 °F 32.3 °F 26.1 °F 60% 29.76 in 10.0 mi West 10.4 mph - N/A   Overcast
9:53 PM 39.0 °F 31.8 °F 25.0 °F 57% 29.74 in 10.0 mi West 11.5 mph 18.4 mph N/A   Mostly Cloudy
10:53 PM 37.9 °F 30.9 °F 26.1 °F 62% 29.74 in 10.0 mi West 10.4 mph - N/A   Overcast
11:53 PM 39.9 °F 32.9 °F 27.0 °F 60% 29.71 in 10.0 mi West 11.5 mph - N/A   Overcast